Time,TemperatureF,DewpointF,PressureIn,WindDirection,WindDirectionDegrees,WindSpeedMPH,WindSpeedGustMPH,Humidity,HourlyPrecipIn,Conditions,Clouds,dailyrainin,SoftwareType,DateUTC
2013-03-02 00:02:00,32.0,31.0,-100.00,WSW,240,0.0,0.0,95,0.00,,,0.18,,2013-03-02 05:02:00,
2013-03-02 00:12:00,32.0,31.0,-100.00,WSW,240,0.0,0.0,95,0.00,,,0.18,,2013-03-02 05:12:00,
2013-03-02 00:32:00,32.0,31.0,-100.00,West,259,0.0,0.0,96,0.00,,,0.17,,2013-03-02 05:32:00,
2013-03-02 00:42:00,32.0,31.0,-100.00,West,259,0.0,0.0,96,0.00,,,0.17,,2013-03-02 05:42:00,
2013-03-02 00:52:00,32.0,31.0,-100.00,West,259,0.0,0.0,96,0.00,,,0.17,,2013-03-02 05:52:00,
2013-03-02 01:02:00,32.0,31.0,-100.00,West,259,0.0,0.0,96,0.00,,,0.17,,2013-03-02 06:02:00,
2013-03-02 01:11:00,32.0,31.0,-100.00,West,259,0.0,0.0,96,0.00,,,0.17,,2013-03-02 06:11:00,
2013-03-02 01:32:00,32.0,31.0,-100.00,NW,324,0.0,0.0,96,0.00,,,0.16,,2013-03-02 06:32:00,
2013-03-02 01:42:00,32.0,31.0,-100.00,NW,324,0.0,0.0,96,0.00,,,0.16,,2013-03-02 06:42:00,
2013-03-02 01:52:00,32.0,31.0,-100.00,NW,324,0.0,0.0,96,0.00,,,0.16,,2013-03-02 06:52:00,
2013-03-02 02:02:00,32.0,31.0,-100.00,NW,324,0.0,0.0,96,0.00,,,0.16,,2013-03-02 07:02:00,
2013-03-02 02:11:00,32.0,31.0,-100.00,NW,324,0.0,0.0,96,0.00,,,0.16,,2013-03-02 07:11:00,
2013-03-02 02:32:00,32.0,31.0,-100.00,SSE,163,0.0,0.0,96,0.00,,,0.15,,2013-03-02 07:32:00,
2013-03-02 02:42:00,32.0,31.0,-100.00,SSE,163,0.0,0.0,96,0.00,,,0.15,,2013-03-02 07:42:00,
2013-03-02 02:52:00,32.0,31.0,-100.00,SSE,163,0.0,0.0,96,0.00,,,0.15,,2013-03-02 07:52:00,
2013-03-02 03:01:00,32.0,31.0,-100.00,SSE,163,0.0,0.0,96,0.00,,,0.15,,2013-03-02 08:01:00,
2013-03-02 03:11:00,32.0,31.0,-100.00,SSE,163,0.0,0.0,96,0.00,,,0.15,,2013-03-02 08:11:00,
2013-03-02 03:43:00,31.0,29.0,-100.00,SSE,165,0.0,0.0,93,0.00,,,0.13,,2013-03-02 08:43:00,
2013-03-02 03:52:00,31.0,29.0,-100.00,SSE,165,0.0,0.0,93,0.00,,,0.13,,2013-03-02 08:52:00,
2013-03-02 04:02:00,31.0,29.0,-100.00,SSE,165,0.0,0.0,93,0.00,,,0.13,,2013-03-02 09:02:00,
2013-03-02 04:11:00,31.0,29.0,-100.00,SSE,165,0.0,0.0,93,0.00,,,0.13,,2013-03-02 09:11:00,
2013-03-02 04:16:00,31.0,29.0,-100.00,South,182,0.0,0.0,93,0.00,,,0.12,,2013-03-02 09:16:00,
2013-03-02 04:32:00,31.0,29.0,-100.00,South,182,0.0,0.0,93,0.00,,,0.12,,2013-03-02 09:32:00,
2013-03-02 04:42:00,31.0,29.0,-100.00,South,182,0.0,0.0,93,0.00,,,0.12,,2013-03-02 09:42:00,
2013-03-02 04:52:00,31.0,29.0,-100.00,South,182,0.0,0.0,93,0.00,,,0.12,,2013-03-02 09:52:00,
2013-03-02 05:01:00,31.0,29.0,-100.00,South,182,0.0,0.0,93,0.00,,,0.12,,2013-03-02 10:01:00,
2013-03-02 05:43:00,30.0,28.0,-100.00,SSW,201,0.0,0.0,92,0.00,,,0.11,,2013-03-02 10:43:00,
2013-03-02 05:52:00,30.0,28.0,-100.00,SSW,201,0.0,0.0,92,0.00,,,0.11,,2013-03-02 10:52:00,
2013-03-02 06:01:00,30.0,28.0,-100.00,SSW,201,0.0,0.0,92,0.00,,,0.11,,2013-03-02 11:01:00,
2013-03-02 06:11:00,30.0,28.0,-100.00,SSW,201,0.0,0.0,92,0.00,,,0.11,,2013-03-02 11:11:00,
2013-03-02 06:32:00,29.0,26.0,-100.00,South,185,0.0,0.0,89,0.00,,,0.10,,2013-03-02 11:32:00,
2013-03-02 06:42:00,29.0,26.0,-100.00,South,185,0.0,0.0,89,0.00,,,0.10,,2013-03-02 11:42:00,
2013-03-02 06:52:00,29.0,26.0,-100.00,South,185,0.0,0.0,89,0.00,,,0.10,,2013-03-02 11:52:00,
2013-03-02 07:02:00,29.0,26.0,-100.00,South,185,0.0,0.0,89,0.00,,,0.10,,2013-03-02 12:02:00,
2013-03-02 07:11:00,29.0,26.0,-100.00,South,185,0.0,0.0,89,0.00,,,0.10,,2013-03-02 12:11:00,
2013-03-02 07:33:00,29.0,26.0,-100.00,West,260,0.0,0.0,90,0.00,,,0.10,,2013-03-02 12:33:00,
2013-03-02 07:43:00,29.0,26.0,-100.00,West,260,0.0,0.0,90,0.00,,,0.10,,2013-03-02 12:43:00,
2013-03-02 07:53:00,29.0,26.0,-100.00,West,260,0.0,0.0,90,0.00,,,0.10,,2013-03-02 12:53:00,
2013-03-02 08:02:00,29.0,26.0,-100.00,West,260,0.0,0.0,90,0.00,,,0.10,,2013-03-02 13:02:00,
2013-03-02 08:11:00,29.0,26.0,-100.00,West,260,0.0,0.0,90,0.00,,,0.10,,2013-03-02 13:11:00,
2013-03-02 08:42:00,29.0,26.0,-100.00,WNW,296,0.0,0.0,89,0.00,,,0.09,,2013-03-02 13:42:00,
2013-03-02 08:53:00,29.0,26.0,-100.00,WNW,296,0.0,0.0,89,0.00,,,0.09,,2013-03-02 13:53:00,
2013-03-02 09:01:00,29.0,26.0,-100.00,WNW,296,0.0,0.0,89,0.00,,,0.09,,2013-03-02 14:01:00,
2013-03-02 09:11:00,29.0,26.0,-100.00,WNW,296,0.0,0.0,89,0.00,,,0.09,,2013-03-02 14:11:00,
2013-03-02 09:32:00,29.0,25.0,-100.00,WSW,253,0.0,0.0,86,0.00,,,0.08,,2013-03-02 14:32:00,
2013-03-02 09:42:00,29.0,25.0,-100.00,WSW,253,0.0,0.0,86,0.00,,,0.08,,2013-03-02 14:42:00,
2013-03-02 09:52:00,29.0,25.0,-100.00,WSW,253,0.0,0.0,86,0.00,,,0.08,,2013-03-02 14:52:00,
2013-03-02 10:02:00,29.0,25.0,-100.00,WSW,253,0.0,0.0,86,0.00,,,0.08,,2013-03-02 15:02:00,
2013-03-02 10:11:00,29.0,25.0,-100.00,WSW,253,0.0,0.0,86,0.00,,,0.08,,2013-03-02 15:11:00,
2013-03-02 10:32:00,30.0,24.0,-100.00,WNW,286,0.0,4.0,79,0.00,,,0.05,,2013-03-02 15:32:00,
2013-03-02 10:42:00,30.0,24.0,-100.00,WNW,286,0.0,4.0,79,0.00,,,0.05,,2013-03-02 15:42:00,
2013-03-02 10:52:00,30.0,24.0,-100.00,WNW,286,0.0,4.0,79,0.00,,,0.05,,2013-03-02 15:52:00,
2013-03-02 11:02:00,30.0,24.0,-100.00,WNW,286,0.0,4.0,79,0.00,,,0.05,,2013-03-02 16:02:00,
2013-03-02 11:11:00,30.0,24.0,-100.00,WNW,286,0.0,4.0,79,0.00,,,0.05,,2013-03-02 16:11:00,
2013-03-02 11:32:00,30.0,25.0,-100.00,West,279,0.0,0.0,81,0.00,,,0.03,,2013-03-02 16:32:00,
2013-03-02 11:42:00,30.0,25.0,-100.00,West,279,0.0,0.0,81,0.00,,,0.03,,2013-03-02 16:42:00,
2013-03-02 11:52:00,30.0,25.0,-100.00,West,279,0.0,0.0,81,0.00,,,0.03,,2013-03-02 16:52:00,
2013-03-02 12:01:00,30.0,25.0,-100.00,West,279,0.0,0.0,81,0.00,,,0.03,,2013-03-02 17:01:00,
2013-03-02 12:12:00,30.0,25.0,-100.00,West,279,0.0,0.0,81,0.00,,,0.03,,2013-03-02 17:12:00,
2013-03-02 12:42:00,29.0,25.0,-100.00,WNW,290,0.0,0.0,83,0.00,,,0.02,,2013-03-02 17:42:00,
2013-03-02 12:52:00,29.0,25.0,-100.00,WNW,290,0.0,0.0,83,0.00,,,0.02,,2013-03-02 17:52:00,
2013-03-02 13:02:00,29.0,25.0,-100.00,WNW,290,0.0,0.0,83,0.00,,,0.02,,2013-03-02 18:02:00,
2013-03-02 13:11:00,29.0,25.0,-100.00,WNW,290,0.0,0.0,83,0.00,,,0.02,,2013-03-02 18:11:00,
2013-03-02 13:32:00,30.0,23.0,-100.00,NW,304,0.0,0.0,74,0.01,,,0.03,,2013-03-02 18:32:00,
2013-03-02 13:42:00,30.0,23.0,-100.00,NW,304,0.0,0.0,74,0.01,,,0.03,,2013-03-02 18:42:00,
2013-03-02 13:52:00,30.0,23.0,-100.00,NW,304,0.0,0.0,74,0.01,,,0.03,,2013-03-02 18:52:00,
2013-03-02 14:02:00,30.0,23.0,-100.00,NW,304,0.0,0.0,74,0.01,,,0.03,,2013-03-02 19:02:00,
2013-03-02 14:12:00,30.0,23.0,-100.00,NW,304,0.0,0.0,74,0.01,,,0.03,,2013-03-02 19:12:00,
2013-03-02 14:43:00,30.0,23.0,-100.00,WNW,284,0.0,0.0,74,0.02,,,0.04,,2013-03-02 19:43:00,
2013-03-02 14:52:00,30.0,23.0,-100.00,WNW,284,0.0,0.0,74,0.02,,,0.04,,2013-03-02 19:52:00,
2013-03-02 15:02:00,30.0,23.0,-100.00,WNW,284,0.0,0.0,74,0.02,,,0.04,,2013-03-02 20:02:00,
2013-03-02 15:11:00,30.0,23.0,-100.00,WNW,284,0.0,0.0,74,0.02,,,0.04,,2013-03-02 20:11:00,
2013-03-02 15:42:00,30.0,23.0,-100.00,NNW,327,0.0,0.0,74,0.00,,,0.04,,2013-03-02 20:42:00,
2013-03-02 15:53:00,30.0,23.0,-100.00,NNW,327,0.0,0.0,74,0.00,,,0.04,,2013-03-02 20:53:00,
2013-03-02 16:02:00,30.0,23.0,-100.00,NNW,327,0.0,0.0,74,0.00,,,0.04,,2013-03-02 21:02:00,
2013-03-02 16:12:00,30.0,23.0,-100.00,NNW,327,0.0,0.0,74,0.00,,,0.04,,2013-03-02 21:12:00,
2013-03-02 16:42:00,29.0,22.0,-100.00,NW,304,0.0,0.0,75,0.02,,,0.06,,2013-03-02 21:42:00,
2013-03-02 16:52:00,29.0,22.0,-100.00,NW,304,0.0,0.0,75,0.02,,,0.06,,2013-03-02 21:52:00,
2013-03-02 17:02:00,29.0,22.0,-100.00,NW,304,0.0,0.0,75,0.02,,,0.06,,2013-03-02 22:02:00,
2013-03-02 17:12:00,29.0,22.0,-100.00,NW,304,0.0,0.0,75,0.02,,,0.06,,2013-03-02 22:12:00,
2013-03-02 17:42:00,28.0,22.0,-100.00,WNW,298,0.0,0.0,78,0.00,,,0.06,,2013-03-02 22:42:00,
2013-03-02 17:52:00,28.0,22.0,-100.00,WNW,298,0.0,0.0,78,0.00,,,0.06,,2013-03-02 22:52:00,
2013-03-02 18:02:00,28.0,22.0,-100.00,WNW,298,0.0,0.0,78,0.00,,,0.06,,2013-03-02 23:02:00,
2013-03-02 18:11:00,28.0,22.0,-100.00,WNW,298,0.0,0.0,78,0.00,,,0.06,,2013-03-02 23:11:00,
2013-03-02 18:32:00,28.0,22.0,-100.00,NNW,334,0.0,0.0,77,0.00,,,0.05,,2013-03-02 23:32:00,
2013-03-02 18:42:00,28.0,22.0,-100.00,NNW,334,0.0,0.0,77,0.00,,,0.05,,2013-03-02 23:42:00,
2013-03-02 18:52:00,28.0,22.0,-100.00,NNW,334,0.0,0.0,77,0.00,,,0.05,,2013-03-02 23:52:00,
2013-03-02 19:02:00,28.0,22.0,-100.00,NNW,334,0.0,0.0,77,0.00,,,0.05,,2013-03-03 00:02:00,
2013-03-02 19:11:00,28.0,22.0,-100.00,NNW,334,0.0,0.0,77,0.00,,,0.05,,2013-03-03 00:11:00,
2013-03-02 19:42:00,27.0,22.0,-100.00,WNW,291,0.0,0.0,82,0.00,,,0.05,,2013-03-03 00:42:00,
2013-03-02 19:52:00,27.0,22.0,-100.00,WNW,291,0.0,0.0,82,0.00,,,0.05,,2013-03-03 00:52:00,
2013-03-02 20:01:00,27.0,22.0,-100.00,WNW,291,0.0,0.0,82,0.00,,,0.05,,2013-03-03 01:01:00,
2013-03-02 20:11:00,27.0,22.0,-100.00,WNW,291,0.0,0.0,82,0.00,,,0.05,,2013-03-03 01:11:00,
2013-03-02 20:42:00,26.0,21.0,-100.00,SSW,207,0.0,0.0,82,0.00,,,0.05,,2013-03-03 01:42:00,
2013-03-02 20:52:00,26.0,21.0,-100.00,SSW,207,0.0,0.0,82,0.00,,,0.05,,2013-03-03 01:52:00,
2013-03-02 21:01:00,26.0,21.0,-100.00,SSW,207,0.0,0.0,82,0.00,,,0.05,,2013-03-03 02:01:00,
2013-03-02 21:11:00,26.0,21.0,-100.00,SSW,207,0.0,0.0,82,0.00,,,0.05,,2013-03-03 02:11:00,
2013-03-02 21:32:00,26.0,22.0,-100.00,West,269,0.0,0.0,83,0.00,,,0.05,,2013-03-03 02:32:00,
2013-03-02 21:42:00,26.0,22.0,-100.00,West,269,0.0,0.0,83,0.00,,,0.05,,2013-03-03 02:42:00,
2013-03-02 21:52:00,26.0,22.0,-100.00,West,269,0.0,0.0,83,0.00,,,0.05,,2013-03-03 02:52:00,
2013-03-02 22:02:00,26.0,22.0,-100.00,West,269,0.0,0.0,83,0.00,,,0.05,,2013-03-03 03:02:00,
2013-03-02 22:11:00,26.0,22.0,-100.00,West,269,0.0,0.0,83,0.00,,,0.05,,2013-03-03 03:11:00,
2013-03-02 22:32:00,26.0,22.0,-100.00,WSW,252,0.0,0.0,85,0.00,,,0.05,,2013-03-03 03:32:00,
2013-03-02 22:42:00,26.0,22.0,-100.00,WSW,252,0.0,0.0,85,0.00,,,0.05,,2013-03-03 03:42:00,
2013-03-02 22:52:00,26.0,22.0,-100.00,WSW,252,0.0,0.0,85,0.00,,,0.05,,2013-03-03 03:52:00,
2013-03-02 23:01:00,26.0,22.0,-100.00,WSW,252,0.0,0.0,85,0.00,,,0.05,,2013-03-03 04:01:00,
2013-03-02 23:11:00,26.0,22.0,-100.00,WSW,252,0.0,0.0,85,0.00,,,0.05,,2013-03-03 04:11:00,
2013-03-02 23:32:00,25.0,21.0,-100.00,West,279,0.0,0.0,84,0.00,,,0.05,,2013-03-03 04:32:00,
2013-03-02 23:42:00,25.0,21.0,-100.00,West,279,0.0,0.0,84,0.00,,,0.05,,2013-03-03 04:42:00,
2013-03-02 23:52:00,25.0,21.0,-100.00,West,279,0.0,0.0,84,0.00,,,0.05,,2013-03-03 04:52:00,